Dalton, GA

5:43 AM EDT on April 19, 2018 (GMT -0400)
Dalton Municipal

Weather History for KDNN - February, 2013

Change the Weather History Date:

Tuesday, February 19, 2013

  Actual Average Record
Temperature  
Mean Temperature 45 °F -  
Max Temperature 53 °F 53 °F 73 °F (1951)
Min Temperature 37 °F 33 °F 6 °F (1958)
Degree Days  
Heating Degree Days 20    
Moisture  
Dew Point 32 °F    
Average Humidity 66    
Maximum Humidity 100    
Minimum Humidity 28    
Precipitation  
Precipitation 0.03 in - - ()
Sea Level Pressure  
Sea Level Pressure 30.07 in    
Wind  
Wind Speed 8 mph (WSW)    
Max Wind Speed 17 mph    
Max Gust Speed 24 mph    
Visibility 10 miles    
Events Rain    
Averages and records for this station are not official NWS values.
T = Trace of Precipitation, MM = Missing Value Source: NWS Daily Summary

Daily Weather History Graph

Daily Weather History Graph

Search for Another Location

Airport or City:

Astronomy

Feb. 19, 2013 Rise Set
Actual Time 7:20 AM EST 6:26 PM EST
Civil Twilight 6:54 AM EST 6:52 PM EST
Nautical Twilight 6:25 AM EST 7:21 PM EST
Astronomical Twilight 5:56 AM EST 7:50 PM EST
Moon 1:04 PM EST 2:44 AM EST
Length of Visible Light 11h 57m
Length of Day
11h 06m
Waxing Gibbous, 67% of the Moon is Illuminated
Feb 19
Waxing Gibbous
Feb 25
Full
Mar 4
Last Quarter
Mar 11
New
Mar 19
First Quarter

Hourly Weather History & Observations

Time (EST) Temp. Windchill Dew Point Humidity Pressure Visibility Wind Dir Wind Speed Gust Speed Precip Events Conditions
12:15 AM 50.0 °F - 28.4 °F 43% 30.04 in 10.0 mi SSE 17.3 mph 21.9 mph 0.01 in   Scattered Clouds
12:35 AM 50.0 °F - 26.6 °F 40% 30.03 in 10.0 mi SSE 12.7 mph 18.4 mph 0.01 in   Mostly Cloudy
12:55 AM 50.0 °F - 26.6 °F 40% 30.03 in 10.0 mi SSE 9.2 mph 18.4 mph 0.01 in   Overcast
1:15 AM 50.0 °F - 26.6 °F 40% 30.02 in 10.0 mi SSE 12.7 mph 18.4 mph N/A   Overcast
1:35 AM 50.0 °F - 26.6 °F 40% 30.00 in 10.0 mi SSE 9.2 mph - N/A Rain Rain
1:55 AM 48.2 °F - 28.4 °F 46% 30.03 in 10.0 mi South 5.8 mph - N/A   Drizzle
2:15 AM 44.6 °F 40.2 °F 33.8 °F 66% 30.03 in 10.0 mi SSE 8.1 mph - N/A Rain Light Rain
2:35 AM 42.8 °F - 35.6 °F 76% 30.03 in 10.0 mi Calm Calm - N/A Rain Light Rain
2:55 AM 42.8 °F 41.1 °F 37.4 °F 81% 30.03 in 7.0 mi SE 3.5 mph - N/A Rain Rain
3:15 AM 41.0 °F 39.0 °F 39.2 °F 93% 30.04 in 7.0 mi South 3.5 mph - N/A Rain Rain
3:35 AM 41.0 °F 38.0 °F 39.2 °F 93% 30.08 in 10.0 mi West 4.6 mph - N/A Rain Light Rain
3:55 AM 41.0 °F - 39.2 °F 93% 30.09 in 7.0 mi Calm Calm - 0.01 in Rain Rain
4:15 AM 39.2 °F - 37.4 °F 93% 30.10 in 7.0 mi Calm Calm - N/A Rain Light Rain
4:35 AM 39.2 °F 35.9 °F 39.2 °F 100% 30.08 in 7.0 mi SE 4.6 mph - N/A Rain Light Rain
4:55 AM 39.2 °F 32.0 °F 37.4 °F 93% 30.05 in 10.0 mi SE 11.5 mph - 0.01 in Rain Light Rain
5:15 AM 39.2 °F 31.2 °F 37.4 °F 93% 30.03 in 10.0 mi SE 13.8 mph - N/A Rain Light Rain
5:35 AM 39.2 °F 31.2 °F 37.4 °F 93% 30.02 in 10.0 mi SE 13.8 mph - N/A Rain Light Rain
5:55 AM 37.4 °F 29.3 °F 37.4 °F 100% 30.01 in 10.0 mi SE 12.7 mph - N/A   Drizzle
6:15 AM 37.4 °F 30.8 °F 37.4 °F 100% 30.00 in 10.0 mi SSE 9.2 mph 18.4 mph N/A   Drizzle
6:55 AM 39.2 °F 32.5 °F 39.2 °F 100% 29.99 in 10.0 mi SSE 10.4 mph - N/A   Overcast
7:15 AM 37.4 °F 34.9 °F 37.4 °F 100% 30.00 in 10.0 mi South 3.5 mph - N/A   Mostly Cloudy
7:35 AM 37.4 °F 33.8 °F 37.4 °F 100% 30.01 in 10.0 mi SSE 4.6 mph - N/A   Overcast
7:55 AM 39.2 °F - 37.4 °F 93% 30.02 in 10.0 mi Calm Calm - N/A   Light Drizzle
8:15 AM 39.2 °F - 39.2 °F 100% 30.03 in 10.0 mi Calm Calm - N/A   Overcast
8:35 AM 39.2 °F - 39.2 °F 100% 30.04 in 10.0 mi Calm Calm - N/A   Overcast
8:55 AM 39.2 °F 35.9 °F 39.2 °F 100% 30.05 in 7.0 mi South 4.6 mph - N/A   Drizzle
9:15 AM 39.2 °F - 39.2 °F 100% 30.05 in 5.0 mi Calm Calm - N/A   Overcast
9:35 AM 41.0 °F - 41.0 °F 100% 30.07 in 5.0 mi Calm Calm - N/A   Overcast
9:55 AM 41.0 °F - 41.0 °F 100% 30.07 in 4.0 mi Calm Calm - N/A   Overcast
10:15 AM 41.0 °F 38.0 °F 41.0 °F 100% 30.06 in 10.0 mi SE 4.6 mph - N/A   Overcast
10:35 AM 41.0 °F 39.0 °F 41.0 °F 100% 30.06 in 10.0 mi SE 3.5 mph - N/A   Overcast
10:55 AM 42.8 °F 41.1 °F 42.8 °F 100% 30.06 in 10.0 mi SSE 3.5 mph - N/A   Overcast
11:15 AM 42.8 °F 41.1 °F 42.8 °F 100% 30.06 in 10.0 mi SSE 3.5 mph - N/A   Overcast
11:35 AM 44.6 °F - 44.6 °F 100% 30.06 in 10.0 mi Calm Calm - N/A   Overcast
11:55 AM 46.4 °F - 44.6 °F 93% 30.07 in 10.0 mi Calm Calm - N/A   Overcast
12:15 PM 48.2 °F - 44.6 °F 87% 30.06 in 10.0 mi Calm Calm - N/A   Mostly Cloudy
12:35 PM 50.0 °F - 46.4 °F 87% 30.05 in 10.0 mi Calm Calm - N/A   Mostly Cloudy
12:55 PM 51.8 °F - 42.8 °F 71% 30.05 in 10.0 mi NNW 8.1 mph - N/A   Mostly Cloudy
1:15 PM 51.8 °F - 42.8 °F 71% 30.04 in 10.0 mi WNW 6.9 mph - N/A   Mostly Cloudy
1:35 PM 51.8 °F - 37.4 °F 58% 30.04 in 10.0 mi NW 8.1 mph - N/A   Mostly Cloudy
1:55 PM 53.6 °F - 35.6 °F 51% 30.03 in 10.0 mi NW 8.1 mph - N/A   Scattered Clouds
2:15 PM 53.6 °F - 32.0 °F 44% 30.03 in 10.0 mi West 6.9 mph - N/A   Mostly Cloudy
2:35 PM 53.6 °F - 32.0 °F 44% 30.03 in 10.0 mi West 8.1 mph 16.1 mph N/A   Scattered Clouds
2:55 PM 53.6 °F - 28.4 °F 38% 30.03 in 10.0 mi WNW 16.1 mph 21.9 mph N/A   Clear
3:15 PM 53.6 °F - 26.6 °F 35% 30.03 in 10.0 mi West 13.8 mph 24.2 mph N/A   Clear
3:35 PM 53.6 °F - 26.6 °F 35% 30.04 in 10.0 mi West 10.4 mph 20.7 mph N/A   Clear
3:55 PM 53.6 °F - 26.6 °F 35% 30.04 in 10.0 mi NW 9.2 mph 17.3 mph N/A   Clear
4:15 PM 53.6 °F - 26.6 °F 35% 30.04 in 10.0 mi NW 10.4 mph 18.4 mph N/A   Clear
4:35 PM 53.6 °F - 24.8 °F 33% 30.05 in 10.0 mi WNW 13.8 mph 23.0 mph N/A   Clear
4:55 PM 53.6 °F - 21.2 °F 28% 30.06 in 10.0 mi West 6.9 mph 16.1 mph N/A   Clear
5:15 PM 51.8 °F - 21.2 °F 30% 30.06 in 10.0 mi West 10.4 mph 16.1 mph N/A   Clear
5:35 PM 51.8 °F - 19.4 °F 28% 30.07 in 10.0 mi West 10.4 mph 23.0 mph N/A   Clear
5:55 PM 50.0 °F - 21.2 °F 32% 30.08 in 10.0 mi WNW 5.8 mph 17.3 mph N/A   Clear
6:15 PM 50.0 °F - 21.2 °F 32% 30.09 in 10.0 mi WNW 6.9 mph - N/A   Clear
7:35 PM 44.6 °F 43.1 °F 21.2 °F 39% 30.13 in 10.0 mi WNW 3.5 mph - N/A   Clear
7:55 PM 44.6 °F 42.2 °F 21.2 °F 39% 30.14 in 10.0 mi WNW 4.6 mph - N/A   Clear
8:15 PM 44.6 °F 40.7 °F 19.4 °F 37% 30.14 in 10.0 mi West 6.9 mph - N/A   Clear
8:35 PM 44.6 °F 40.7 °F 17.6 °F 34% 30.14 in 10.0 mi WNW 6.9 mph - N/A   Clear
8:55 PM 42.8 °F 37.5 °F 17.6 °F 36% 30.14 in 10.0 mi WNW 9.2 mph - N/A   Clear
9:15 PM 42.8 °F 38.6 °F 17.6 °F 36% 30.15 in 10.0 mi WNW 6.9 mph - N/A   Clear
9:35 PM 41.0 °F 37.1 °F 19.4 °F 42% 30.15 in 10.0 mi NW 5.8 mph - N/A   Clear
9:55 PM 41.0 °F 37.1 °F 19.4 °F 42% 30.15 in 10.0 mi NW 5.8 mph - N/A   Clear
10:15 PM 41.0 °F 35.2 °F 19.4 °F 42% 30.17 in 10.0 mi NW 9.2 mph - N/A   Clear
10:35 PM 39.2 °F 35.0 °F 21.2 °F 49% 30.17 in 10.0 mi NNW 5.8 mph - N/A   Clear
10:55 PM 37.4 °F 33.8 °F 21.2 °F 52% 30.19 in 10.0 mi NNW 4.6 mph - N/A   Clear
11:15 PM 37.4 °F 31.4 °F 21.2 °F 52% 30.20 in 10.0 mi NW 8.1 mph - N/A   Clear
11:35 PM 37.4 °F 31.4 °F 21.2 °F 52% 30.20 in 10.0 mi NNW 8.1 mph - N/A   Clear
11:55 PM 37.4 °F 30.3 °F 21.2 °F 52% 30.20 in 10.0 mi NNW 10.4 mph - N/A   Clear